Regional Weather Roundup
Issued by NWS

Home | Current Version | Previous Version | Text Only | Print | Product List | Glossary On
Versions: 1 2 3 4 5 6 7 8 9 10 11 12 13 14 15 16 17 18 19 20 21 22 23 24 25 26 27 28 29 30 31 32 33 34 35 36 37 38 39 40 41 42 43 44 45 46 47 48 49 50
783
ASUS43 KTOP 201808
RWRKS

WEATHER ROUNDUP FOR KANSAS
NATIONAL WEATHER SERVICE GOODLAND KS
100 PM CDT SUN AUG 20 2017

NOTE:  "FAIR" INDICATES FEW OR NO CLOUDS BELOW 12,000 FEET WITH NO
SIGNIFICANT WEATHER AND/OR OBSTRUCTIONS TO VISIBILITY.

KSZ001>006-013>018-027>032-041>047-201900-
NORTHWEST KANSAS

CITY           SKY/WX    TMP DP  RH WIND       PRES   REMARKS
GOODLAND       MOSUNNY   88  57  34 CALM      29.99F
6HR MIN TEMP:  64; 6HR MAX TEMP:  88;

HAYS           MOSUNNY   96  65  35 S16G22    29.91F HX  98
HILL CITY      MOSUNNY   93  66  40 S8        29.92F HX  96
6HR MIN TEMP:  70; 6HR MAX TEMP:  94;

RUSSELL        PTSUNNY   94  68  42 S16       29.91F HX  98
6HR MIN TEMP:  71; 6HR MAX TEMP:  94;

$$

KSZ061>065-074>080-084>089-201900-
SOUTHWEST KANSAS

CITY           SKY/WX    TMP DP  RH WIND       PRES   REMARKS
DODGE CITY     SUNNY     94  60  32 S17G24    29.96F
6HR MIN TEMP:  69; 6HR MAX TEMP:  95;

ELKHART          N/A     87  64  46 S14         N/A
GARDEN CITY    SUNNY     90  63  40 S16G22    29.97F
6HR MIN TEMP:  67; 6HR MAX TEMP:  90;

GREAT BEND     SUNNY     91  71  51 S13       29.93F HX  97
LIBERAL        SUNNY     89  65  44 SW16      30.00
PRATT          SUNNY     93  64  38 S15       29.95F HX  95
6HR MIN TEMP:  70; 6HR MAX TEMP:  94;

$$

KSZ066>073-081>083-090>101-201900-
SOUTHEAST KANSAS

CITY           SKY/WX    TMP DP  RH WIND       PRES   REMARKS
CHANUTE        CLOUDY    91  75  59 SE10      29.99F HX 101
6HR MIN TEMP:  70; 6HR MAX TEMP:  91;

COFFEYVILLE    SUNNY     92  76  59 S9        29.98F HX 104
6HR MIN TEMP:  73; 6HR MAX TEMP:  92;

HUTCHINSON     SUNNY     93  69  45 S14       29.94F HX  98
6HR MIN TEMP:  71; 6HR MAX TEMP:  93;

MEDICINE LODGE   N/A     92  68  45 S12       29.94F HX  96
NEWTON         SUNNY     90  71  53 S15       29.96F HX  96
PARSONS        SUNNY     92  76  59 S6        30.00F HX 104
6HR MIN TEMP:  71; 6HR MAX TEMP:  92;

WICHITA INTL   PTSUNNY   94  71  47 S15       29.95F HX 101
6HR MIN TEMP:  72; 6HR MAX TEMP:  94;

WICHITA JABRA  SUNNY     90  73  57 S12       29.96F HX  98
6HR MIN TEMP:  73; 6HR MAX TEMP:  90;

WICHITA MCCONL SUNNY     91  71  52 S13       29.97F HX  97
WINFIELD       SUNNY     91  74  57 S8        29.98F HX 100
6HR MIN TEMP:  73; 6HR MAX TEMP:  91;

$$

KSZ007>012-019>026-033>040-048>060-102>105-201900-
NORTHEAST KANSAS

CITY           SKY/WX    TMP DP  RH WIND       PRES   REMARKS
CONCORDIA      SUNNY     89  73  59 S13       29.91F HX  97
6HR MIN TEMP:  66; 6HR MAX TEMP:  90;

EMPORIA        SUNNY     88  72  58 S14       29.97F
6HR MIN TEMP:  69; 6HR MAX TEMP:  88;

LAWRENCE       SUNNY     86  71  60 E15       29.97F
6HR MIN TEMP:  68; 6HR MAX TEMP:  87;

MANHATTAN      SUNNY     90  74  59 S14       29.91F HX  99
6HR MIN TEMP:  68; 6HR MAX TEMP:  91;

MARYSVILLE     SUNNY     88  70  55 S8G20     29.95S
OLATHE IND     SUNNY     84  71  65 SE15      30.01F
6HR MIN TEMP:  70; 6HR MAX TEMP:  84;

OLATHE EXE     SUNNY     83  71  67 SE12      30.00F
6HR MIN TEMP:  69; 6HR MAX TEMP:  83;

SALINA         MOSUNNY   98  68  37 S16       29.91F HX 103
6HR MIN TEMP:  77; 6HR MAX TEMP:  98;

TOPEKA BILLARD SUNNY     88  72  58 SE14      29.96F
6HR MIN TEMP:  69; 6HR MAX TEMP:  88; 6HR PCP: TRACE;

TOPEKA FORBES  SUNNY     89  72  56 SE14G22   29.96F HX  96
6HR MIN TEMP:  72; 6HR MAX TEMP:  89;

$$




USA.gov is the U.S. government's official web portal to all federal, state and local government web resources and services.